[[{"header":{"parameterUnit":"m.s-1","parameterCategory":1,"la1":30.2991,"la2":30.254,"lo1":-89.0895,"lo2":-89.0444,"dy":0.0017,"dx":0.0017,"nx":28,"ny":28,"refTime":"2024-04-06T09:00:00:Z","depth":0,"parameterNumber":2,"parameterNumberName":"U-component_of_WINDS"},"data":[0,0,0,0,0,0,0,0,0,0,0,0,0,0,0,0,0,0,0,0,0,0,0,0,0,0,0,0,0,0,0,0,0,0,0,0,0,0,0,0,0,0,0,0,0,0,0,0,0,0,0,0,0,0,0,0,0,0,-1.4651,-1.4652,0,-1.4701,-1.4702,-1.4702,-1.4665,-1.4664,-1.4662,-1.466,-1.4713,-1.4716,-1.4718,0,0,0,0,0,0,0,0,0,0,0,0,0,-1.4524,-1.4527,-1.4651,-1.4652,-1.4652,-1.4701,-1.4702,-1.4702,-1.4666,-1.4664,-1.4662,-1.466,-1.4712,-1.4715,-1.4719,0,0,0,0,0,0,0,0,0,0,0,0,0,-1.4577,-1.4527,-1.4651,-1.464,-1.4639,-1.4701,-1.4702,-1.4702,-1.4666,-1.4664,-1.4661,-1.4659,-1.4711,-1.4715,-1.4719,-1.4795,0,0,-1.4732,-1.4734,0,0,0,0,0,0,0,0,-1.4574,-1.4582,-1.4641,-1.4641,-1.464,-1.4674,-1.4676,-1.4733,-1.4667,-1.4656,-1.466,-1.4658,-1.4702,-1.4707,-1.4722,-1.4797,-1.4799,-1.4733,-1.4736,-1.4737,-1.4739,0,0,0,0,0,0,0,-1.4571,-1.4579,-1.4671,-1.4642,-1.4641,-1.4632,-1.4637,-1.4687,-1.4692,-1.4657,-1.4654,-1.466,-1.4701,-1.4718,-1.4723,-1.48,-1.4733,-1.4737,-1.4739,-1.4741,-1.494,-1.4942,0,0,0,0,0,0,-1.4568,-1.4577,-1.4669,-1.4672,-1.46,-1.4637,-1.4642,-1.4666,-1.4691,-1.4693,-1.4662,-1.4658,-1.4711,-1.4718,-1.4724,-1.4815,-1.4737,-1.4741,-1.4744,-1.4937,-1.4941,-1.4943,0,0,0,0,0,0,-1.4565,-1.4576,-1.4667,-1.4624,-1.4635,-1.4641,-1.4668,-1.4668,-1.4684,-1.4696,-1.4697,-1.4678,-1.471,-1.4718,-1.4777,-1.4816,-1.4743,-1.4747,-1.4934,-1.4938,-1.4942,-1.4996,0,0,0,0,0,0,-1.4562,-1.4576,-1.4605,-1.4625,-1.4637,-1.472,-1.4671,-1.4671,-1.4692,-1.4687,-1.4711,-1.4712,-1.4708,-1.4771,-1.4782,-1.4821,-1.4751,-1.4931,-1.4936,-1.4941,-1.4991,-1.5001,-1.501,0,0,0,0,0,-1.4557,-1.4618,-1.4606,-1.4618,-1.4673,-1.4722,-1.4729,-1.4723,-1.4695,-1.4724,-1.4731,-1.4711,-1.481,-1.4777,-1.4789,-1.483,-1.4928,-1.4934,-1.494,-1.4986,-1.4999,-1.501,0,0,0,0,0,0,-1.4603,-1.462,-1.4608,-1.4676,-1.4698,-1.4715,-1.4752,-1.4737,-1.4767,-1.4762,-1.4753,-1.4759,-1.4821,-1.4831,-1.4795,-1.4904,-1.4865,-1.4873,-1.4896,-1.4908,-1.4918,-1.4914,-1.4754,0,0,0,0,0,-1.4621,-1.4658,-1.4672,-1.4731,-1.4743,-1.4746,-1.4767,-1.476,-1.4782,-1.4791,-1.4803,-1.4825,-1.4861,-1.4885,-1.4918,-1.4992,-1.4996,-1.5025,-1.5035,-1.5043,-1.5051,-1.5091,-1.5104,-1.4963,-1.4963,-1.4963,0,0,-1.4658,-1.4673,-1.4697,-1.4741,-1.4757,-1.4796,-1.4754,-1.4797,-1.4827,-1.4798,-1.4855,-1.4864,-1.4888,-1.4955,-1.4984,-1.4965,-1.5091,-1.5051,-1.5057,-1.5061,-1.5098,-1.5112,-1.5123,-1.4967,-1.4966,-1.4966,0,0,-1.4747,-1.4762,-1.4813,-1.4829,-1.4854,-1.4855,-1.4867,-1.4887,-1.4892,-1.4949,-1.4928,-1.4962,-1.5024,-1.5043,-1.506,-1.5155,-1.5138,-1.5166,-1.5218,-1.5256,-1.5267,-1.5277,-1.5312,-1.5324,-1.5173,-1.5174,-1.5174,0,-1.4791,-1.485,-1.4841,-1.4887,-1.4907,-1.4881,-1.4933,-1.495,-1.4984,-1.4998,-1.4976,-1.5053,-1.5067,-1.5138,-1.5161,-1.5176,-1.519,-1.5164,-1.5266,-1.5276,-1.5285,-1.5318,-1.5331,-1.5177,-1.5177,-1.5176,-1.5176,0,-1.4903,-1.4944,-1.4982,-1.5016,-1.504,-1.5088,-1.5087,-1.5112,-1.5103,-1.5107,-1.5165,-1.5181,-1.5218,-1.5234,-1.5226,-1.5303,-1.529,-1.5267,-1.5227,-1.5302,-1.5333,-1.5345,-1.5182,-1.5181,-1.518,-1.5179,0,0,-1.5024,-1.5051,-1.5065,-1.508,-1.5104,-1.5136,-1.5183,-1.5218,-1.524,-1.5264,-1.5304,-1.5356,-1.5335,-1.5354,-1.5348,-1.5382,-1.5456,-1.5354,-1.5355,-1.5373,-1.5543,-1.5561,-1.5576,-1.5444,-1.5447,-1.5449,-1.5541,0,-1.5114,-1.5196,-1.519,-1.5267,-1.5305,-1.5281,-1.5322,-1.5342,-1.5346,-1.5379,-1.5383,-1.5421,-1.5389,-1.5401,-1.5434,-1.544,-1.5491,-1.5433,-1.5482,-1.5484,-1.5478,-1.5592,-1.5611,-1.5698,-1.5553,-1.5555,-1.5557,0,-1.5232,-1.526,-1.5341,-1.5359,-1.5375,-1.5412,-1.5443,-1.5475,-1.5496,-1.5497,-1.5519,-1.5506,-1.5554,-1.5512,-1.5577,-1.5539,-1.5558,-1.5564,-1.5567,-1.5572,-1.5526,-1.5601,-1.5726,-1.5739,-1.5575,-1.5574,-1.5573,0,-1.5313,-1.537,-1.5426,-1.5439,-1.5462,-1.5489,-1.5499,-1.5518,-1.554,-1.5567,-1.5581,-1.5614,-1.5632,-1.5658,-1.5654,-1.5624,-1.5721,-1.5679,-1.5724,-1.5724,-1.5746,-1.5745,-1.5877,-1.5757,-1.5757,-1.5757,-1.5756,0,-1.5415,-1.5466,-1.5463,-1.5498,-1.5554,-1.5545,-1.5601,-1.5608,-1.5625,-1.5661,-1.5642,-1.5676,-1.5669,-1.5703,-1.5701,-1.5755,-1.5764,-1.5766,-1.5765,-1.5768,-1.5768,-1.5782,-1.5776,-1.576,-1.5759,-1.5759,-1.5758,0,-1.5516,-1.5515,-1.5575,-1.5591,-1.5596,-1.5637,-1.5651,-1.5684,-1.5686,-1.5732,-1.5742,-1.5746,-1.5784,-1.5783,-1.5828,-1.5826,-1.5893,-1.5885,-1.5886,-1.5885,-1.593,-1.5926,-1.6076,-1.6095,-1.5962,-1.5963,-1.5964,0,-1.5582,-1.5621,-1.5641,-1.5663,-1.5675,-1.5712,-1.5733,-1.5726,-1.5749,-1.5776,-1.5806,-1.5843,-1.5872,-1.5935,-1.5942,-1.5976,-1.5968,-1.6018,-1.5973,-1.5976,-1.597,-1.5968,-1.5972,-1.6028,-1.6029,-1.603,-1.6031,0,-1.57,-1.5698,-1.5729,-1.5761,-1.5788,-1.5812,-1.5835,-1.5854,-1.5849,-1.5877,-1.5916,-1.5938,-1.5983,-1.602,-1.6052,-1.6063,-1.6047,-1.6045,-1.6058,-1.6062,-1.6062,-1.6063,-1.5911,-1.6042,-1.6041,-1.604,-1.604,-1.6039,-1.5786,-1.5819,-1.5838,-1.5874,-1.589,-1.5912,-1.5943,-1.5949,-1.5982,-1.6018,-1.6011,-1.6055,-1.6075,-1.6116,-1.613,-1.6164,-1.6147,-1.6164,-1.6169,-1.6174,-1.6179,-1.6055,-1.617,-1.617,-1.6169,-1.6169,-1.6169,0,-1.5904,-1.5914,-1.5948,-1.598,-1.6008,-1.5989,-1.6013,-1.6038,-1.6077,-1.6097,-1.6125,-1.6171,-1.6206,-1.6215,-1.625,-1.6275,-1.6269,-1.6285,-1.6283,-1.6286,-1.6193,-1.6179,-1.6289,-1.6289,-1.6289,-1.6289,-1.6289,-1.6289,-1.5968,-1.6023,-1.6023,-1.6086,-1.6096,-1.6139,-1.6155,-1.6174,-1.619,-1.6241,-1.627,-1.6276,-1.6291,-1.6326,-1.6358,-1.636,-1.6374,-1.6393,-1.6392,-1.6305,-1.6293,-1.6281,-1.6268,-1.6396,-1.6396,-1.6482,-1.6483,-1.6484]},{"header":{"parameterUnit":"m.s-1","parameterCategory":1,"la1":30.2991,"la2":30.254,"lo1":-89.0895,"lo2":-89.0444,"dy":0.0017,"dx":0.0017,"nx":28,"ny":28,"refTime":"2024-04-06T09:00:00:Z","depth":0,"parameterNumber":3,"parameterNumberName":"V-component_of_WINDS"},"data":[0,0,0,0,0,0,0,0,0,0,0,0,0,0,0,0,0,0,0,0,0,0,0,0,0,0,0,0,0,0,0,0,0,0,0,0,0,0,0,0,0,0,0,0,0,0,0,0,0,0,0,0,0,0,0,0,0,0,-3.6771,-3.6771,0,-3.6842,-3.6843,-3.6844,-3.6797,-3.6795,-3.6793,-3.6791,-3.6859,-3.6863,-3.6867,0,0,0,0,0,0,0,0,0,0,0,0,0,-3.6587,-3.6591,-3.677,-3.6771,-3.6772,-3.6842,-3.6843,-3.6844,-3.6798,-3.6795,-3.6792,-3.679,-3.6858,-3.6863,-3.6867,0,0,0,0,0,0,0,0,0,0,0,0,0,-3.6664,-3.6592,-3.677,-3.6758,-3.6757,-3.6842,-3.6843,-3.6845,-3.6798,-3.6795,-3.6792,-3.6789,-3.6857,-3.6862,-3.6868,-3.6968,0,0,-3.6885,-3.6888,0,0,0,0,0,0,0,0,-3.666,-3.6671,-3.6759,-3.6759,-3.6758,-3.6808,-3.6804,-3.6886,-3.6799,-3.6782,-3.6791,-3.6787,-3.6844,-3.6851,-3.6871,-3.6971,-3.6974,-3.6886,-3.6889,-3.6892,-3.6893,0,0,0,0,0,0,0,-3.6654,-3.6667,-3.6799,-3.676,-3.676,-3.6747,-3.6754,-3.6819,-3.683,-3.6784,-3.678,-3.679,-3.6844,-3.6866,-3.6873,-3.6975,-3.6886,-3.6891,-3.6894,-3.6897,-3.7159,-3.7163,0,0,0,0,0,0,-3.6651,-3.6663,-3.6796,-3.6801,-3.67,-3.6753,-3.6761,-3.6795,-3.683,-3.6832,-3.6793,-3.6787,-3.6858,-3.6866,-3.6875,-3.6994,-3.6892,-3.6897,-3.69,-3.7156,-3.716,-3.7164,0,0,0,0,0,0,-3.6647,-3.6663,-3.6794,-3.6731,-3.6747,-3.6759,-3.6798,-3.6798,-3.682,-3.6837,-3.6838,-3.6814,-3.6856,-3.6867,-3.6945,-3.6996,-3.69,-3.6905,-3.7152,-3.7157,-3.7162,-3.7233,0,0,0,0,0,0,-3.6642,-3.6662,-3.6701,-3.6733,-3.675,-3.6865,-3.6801,-3.6802,-3.6831,-3.6825,-3.6857,-3.6859,-3.6854,-3.6937,-3.6951,-3.7002,-3.6909,-3.7147,-3.7154,-3.716,-3.7226,-3.724,-3.7252,0,0,0,0,0,-3.6636,-3.6717,-3.6704,-3.672,-3.68,-3.6868,-3.6878,-3.6872,-3.6835,-3.6874,-3.6884,-3.6858,-3.6988,-3.6945,-3.6961,-3.7014,-3.7144,-3.7152,-3.716,-3.7221,-3.7238,-3.7252,0,0,0,0,0,0,-3.669,-3.6721,-3.6706,-3.6801,-3.6832,-3.686,-3.6908,-3.689,-3.6931,-3.6923,-3.6913,-3.6921,-3.7003,-3.7016,-3.6968,-3.7112,-3.706,-3.7071,-3.7101,-3.7117,-3.713,-3.7125,-3.6914,0,0,0,0,0,-3.6713,-3.6767,-3.6791,-3.6872,-3.6889,-3.6896,-3.6925,-3.6919,-3.695,-3.6962,-3.6978,-3.7008,-3.7055,-3.7087,-3.7132,-3.7228,-3.7234,-3.7272,-3.7285,-3.7296,-3.7306,-3.7357,-3.7375,-3.719,-3.719,-3.719,0,0,-3.6761,-3.6785,-3.6819,-3.6884,-3.6907,-3.6962,-3.6907,-3.6967,-3.7007,-3.697,-3.7046,-3.7059,-3.7091,-3.718,-3.7219,-3.7193,-3.7358,-3.7306,-3.7314,-3.7318,-3.7367,-3.7385,-3.74,-3.7196,-3.7195,-3.7194,0,0,-3.6877,-3.6901,-3.6971,-3.6996,-3.7033,-3.7037,-3.7054,-3.7085,-3.7093,-3.7169,-3.7142,-3.7189,-3.7271,-3.7295,-3.7319,-3.7444,-3.7421,-3.7459,-3.7526,-3.7576,-3.7591,-3.7604,-3.7648,-3.7664,-3.7468,-3.7469,-3.7469,0,-3.6931,-3.7015,-3.7009,-3.7072,-3.71,-3.7071,-3.7142,-3.7165,-3.7214,-3.7234,-3.7205,-3.7308,-3.7327,-3.7421,-3.7452,-3.7471,-3.7489,-3.7455,-3.759,-3.7602,-3.7614,-3.7657,-3.7673,-3.7473,-3.7472,-3.7472,-3.7472,0,-3.708,-3.7138,-3.719,-3.724,-3.7274,-3.734,-3.7343,-3.7378,-3.7369,-3.7376,-3.7453,-3.7476,-3.7525,-3.7546,-3.7537,-3.7639,-3.7621,-3.7591,-3.7538,-3.7636,-3.7676,-3.7692,-3.7479,-3.7478,-3.7476,-3.7475,0,0,-3.7231,-3.7278,-3.7297,-3.732,-3.7359,-3.7402,-3.7467,-3.7516,-3.7547,-3.7581,-3.7634,-3.7705,-3.7677,-3.7704,-3.7696,-3.7741,-3.7838,-3.7705,-3.7705,-3.7729,-3.7952,-3.7974,-3.7993,-3.7823,-3.7826,-3.7829,-3.7949,0,-3.7349,-3.7463,-3.746,-3.7566,-3.7619,-3.7592,-3.7648,-3.7677,-3.7686,-3.773,-3.7738,-3.7789,-3.7749,-3.7765,-3.7808,-3.7818,-3.7883,-3.7809,-3.7871,-3.7873,-3.7864,-3.8014,-3.8038,-3.815,-3.7964,-3.7967,-3.7969,0,-3.7502,-3.7544,-3.7656,-3.7687,-3.7709,-3.776,-3.7805,-3.7849,-3.788,-3.7883,-3.7913,-3.7899,-3.7962,-3.7908,-3.7995,-3.7944,-3.7969,-3.7978,-3.7982,-3.7988,-3.7927,-3.8023,-3.8186,-3.8203,-3.7993,-3.7991,-3.7989,0,-3.7601,-3.7685,-3.7763,-3.7783,-3.7822,-3.7858,-3.7875,-3.7904,-3.7934,-3.7973,-3.7992,-3.8037,-3.8062,-3.8097,-3.8094,-3.8055,-3.8182,-3.8128,-3.8185,-3.8186,-3.8213,-3.8212,-3.8382,-3.823,-3.823,-3.8229,-3.8229,0,-3.7733,-3.7802,-3.7808,-3.7856,-3.7933,-3.7928,-3.8003,-3.8016,-3.8042,-3.8091,-3.807,-3.8116,-3.811,-3.8156,-3.8154,-3.8226,-3.8237,-3.824,-3.8239,-3.8242,-3.8242,-3.8258,-3.825,-3.8234,-3.8233,-3.8232,-3.8231,0,-3.7857,-3.7864,-3.7947,-3.7977,-3.7986,-3.8041,-3.8066,-3.8111,-3.8118,-3.818,-3.8194,-3.8204,-3.8256,-3.8258,-3.8317,-3.8316,-3.8404,-3.8394,-3.8394,-3.8392,-3.845,-3.8445,-3.8637,-3.8662,-3.8494,-3.8495,-3.8496,0,-3.794,-3.7994,-3.803,-3.8062,-3.8083,-3.8134,-3.8166,-3.8162,-3.8196,-3.8236,-3.8276,-3.8327,-3.8368,-3.8453,-3.8464,-3.851,-3.85,-3.8565,-3.8507,-3.8509,-3.8501,-3.8498,-3.8503,-3.8576,-3.8578,-3.8579,-3.858,0,-3.8088,-3.809,-3.8137,-3.8185,-3.8224,-3.8261,-3.8296,-3.8323,-3.8323,-3.8361,-3.8416,-3.8448,-3.851,-3.856,-3.8605,-3.862,-3.8601,-3.8599,-3.8614,-3.8618,-3.8616,-3.8618,-3.8425,-3.8594,-3.8593,-3.8592,-3.8591,-3.8591,-3.8195,-3.8241,-3.8274,-3.8327,-3.8353,-3.8386,-3.843,-3.8443,-3.8489,-3.8541,-3.8536,-3.8597,-3.8626,-3.8684,-3.8704,-3.875,-3.8727,-3.875,-3.8756,-3.8762,-3.8768,-3.8609,-3.8758,-3.8757,-3.8757,-3.8757,-3.8756,0,-3.8341,-3.8362,-3.8411,-3.8461,-3.8503,-3.8482,-3.852,-3.8555,-3.861,-3.864,-3.8681,-3.8744,-3.8793,-3.8809,-3.8856,-3.889,-3.8882,-3.8903,-3.89,-3.8904,-3.8785,-3.8767,-3.8908,-3.8908,-3.8908,-3.8908,-3.8908,-3.8908,-3.8423,-3.85,-3.8505,-3.8594,-3.8614,-3.8675,-3.8698,-3.8728,-3.8752,-3.8824,-3.8865,-3.8876,-3.89,-3.8949,-3.8993,-3.8996,-3.9014,-3.9039,-3.9038,-3.8927,-3.8912,-3.8898,-3.888,-3.9043,-3.9043,-3.9153,-3.9154,-3.9155]}]]